Back to catalog

SL-16 DEB

AliveLEO
NORAD 22403·DEBRIS·🇷🇺 Russia

Launched Dec 25, 1992 from Baikonur Cosmodrome

Loading…

Next Passes (next 24 hours)

TLE

FreshSource: Space-Track

Epoch: Sep 14, 2026, 03:30 UTC

1 22403U 92093CU  26257.14614412  .00000144  00000-0  11098-3 0  9990
2 22403  70.8932  24.5701 0081855 346.3987  70.1129 14.07087341721957

Track SL-16 DEB in real time with AllMySat

Download on the App Store